Location: Gönnheim
(49.4488°N, 8.2383°E)
Time: 01:04:11
(UTC+00:00)

PSLV R/B - Pass Details

Date: 19 May 2025
Orbit: 586 x 683 km, 97.9° (Epoch: 23 June)

Event Time Altitude Azimuth Distance (km) Brightness Sun altitude
Rises 22:40:22 0° 19° (NNE) 2,848 8.0 -19.9°
Reaches altitude 10° 22:42:39 10° 27° (NNE) 1,933 6.8 -20.0°
Maximum altitude 22:46:38 42° 98° (E) 851 4.1 -20.1°
Enters shadow 22:47:09 40° 119° (ESE) 879 4.0 -20.1°
